www.pogodaiklimat.ru

Погода и климат >> Архив погоды >> Египет >> Нехель


ПОГОДА в Нехеле

  • Прогноз погоды в Нехеле
  • Монитор погоды в Нехеле

АРХИВ ПОГОДЫ в Нехеле

Время (UTC), дата Ветер
(напр.,м/с)
 
Видим.   Явления Облачность Т
(С)
Тd
(С)
f
(%)
Тe
(С)
Тes
(С)
Комфортность P
(гПа)
Po
(гПа)
Тmin
(С)
Tmax
(С)
R
(мм)
R24
(мм)
S
(см)
21 12.06 С 2 10 км ясно +20.9 +16.6 76 +25 +25 комфорт 1014.1 967.7
03 13.06 Ю 1 10 км ясно +16.6 +14.0 85 +18 +18 1013.0 966.0
06 13.06 Ю 1 10 км ясно +24.0 +16.6 63 +27 +39 жарко 1012.4 966.5 +16.2
09 13.06 С 3 10 км ясно +28.7 +11.5 34 +29 +49 жарко 1011.3 966.2
12 13.06 З 5 10 км ясно +31.1 +8.7 25 +30 +40 жарко 1009.1 964.4
15 13.06 СЗ 5 10 км 4/4 600 м
[Cu hum]
+30.4 +9.7 28 +30 +31 жарко 1008.7 964.0
18 13.06 С 8 10 км ясно +25.0 +12.5 46 +27 +27 жарко 1010.5 964.9 +31.7
21 13.06 С 3 10 км ясно +21.7 +13.3 59 +24 +24 комфорт 1012.0 965.8
03 14.06 Ю 1 10 км ясно +17.8 +12.0 69 +19 +19 1010.2 963.5
12 14.06 З 3 10 км ясно +30.5 +11.0 30 +31 +44 жарко 1007.0 962.3
15 14.06 С 3 10 км 4/0
[Ac trans]
+30.0 +12.4 34 +31 +33 жарко 1006.2 961.5
18 14.06 С 7 10 км 4/0
[Ac trans]
+25.6 +16.2 56 +29 +29 душно 1008.1 962.7 +31.7
21 14.06 С 4 10 км ясно +22.4 +16.1 68 +27 +27 душно 1009.4 963.4
06 15.06 С 1 10 км ясно +22.9 +16.6 68 +28 +38 душно 1008.9 963.0 +17.1
09 15.06 ЮЗ 2 10 км ясно +29.7 +8.5 27 +29 +52 опасность
солнечного
удара
1007.6 962.8
12 15.06 СЗ 4 10 км ясно +32.6 +4.5 17 +30 +42 жарко 1005.8 961.5
18 15.06 С 6 10 км ясно +27.8 +15.2 46 +30 +30 жарко 1006.5 961.5 +33.7
21 15.06 С 2 10 км ясно +23.5 +14.6 57 +26 +26 жарко 1008.4 962.7
00 16.06 ЮЗ 2 10 км ясно +20.5 +14.1 67 +24 +24 комфорт 1008.0 961.8
06 16.06 ЮЗ 2 10 км ясно +26.5 +13.9 46 +29 +38 жарко 1008.6 963.3 +18.3
09 16.06 ЮЗ 5 10 км 3/3 600 м
[Cu med, cong]
+32.9 +11.6 27 +33 +40 жарко 1007.2 962.9
12 16.06 З 8 10 км 3/3 600 м
[Cu med, cong]
+34.1 +8.2 20 +32 +35 жарко 1006.1 962.0
15 16.06 З 6 10 км 4/0
[Ac trans]
+33.4 +8.9 22 +32 +33 жарко 1005.8 961.6
18 16.06 СЗ 4 10 км 4/0
[Ac trans]
+29.6 +9.8 29 +29 +29 жарко 1007.9 963.1 +34.9
21 16.06 С 2 10 км ясно +24.2 +14.4 54 +27 +27 жарко 1010.1 964.4
00 17.06 ЮВ 2 10 км ясно +22.1 +14.1 60 +25 +25 комфорт 1009.4 963.4
06 17.06 Ю 4 10 км ясно +27.3 +10.9 36 +28 +34 жарко 1010.2 964.9 +18.9
09 17.06 ЮЗ 7 10 км 3/3 600 м
[Cu med, cong]
+33.7 +9.6 23 +33 +37 жарко 1008.5 964.2
15 17.06 З 5 10 км 1/1 600 м
[Cu med, cong]
+33.9 +10.7 24 +33 +35 жарко 1007.5 963.3
18 17.06 С 6 10 км ясно +26.2 +17.1 57 +30 +30 душно 1010.8 965.3 +35.0
21 17.06 С 2 10 км ясно +23.5 +15.4 60 +26 +26 жарко 1012.7 966.8
00 18.06 Ю 1 10 км ясно +21.4 +13.8 62 +24 +24 комфорт 1011.5 965.3
06 18.06 ЮЗ 2 10 км ясно +26.0 +16.7 57 +30 +40 душно 1012.9 967.3 +19.3
09 18.06 З 3 10 км ясно +31.4 +11.5 29 +32 +49 жарко 1012.0 967.3
12 18.06 СЗ 6 10 км ясно +34.0 +6.9 19 +32 +38 жарко 1010.5 966.2
15 18.06 СЗ 7 10 км ясно +33.5 +4.8 17 +31 +32 жарко 1010.1 965.7
18 18.06 С 6 10 км ясно +27.9 +15.1 46 +31 +31 душно 1012.0 966.7 +34.7
21 18.06 С 1 10 км ясно +23.3 +13.2 53 +26 +26 жарко 1013.3 967.3
03 19.06 ЮЗ 2 10 км ясно +17.9 +10.3 61 +19 +19 1012.1 965.3
06 19.06 Ю 2 10 км ясно +27.7 +13.5 42 +30 +39 жарко 1011.1 965.9 +17.8
12 19.06 З 7 10 км ясно +35.9 +8.8 19 +34 +39 очень
жарко
1008.7 964.7

 

Местоположение метеостанции Нехель (Египет): широта 29.92 долгота 33.73 высота над уровнем моря 403 м.

В архиве по умолчанию представлена погода в Нехеле за последнюю неделю. Архивные данные за месяц целиком и за предыдущие месяцы, начиная с января 2011 года, Вы можете получить, выбрав интересующий диапазон дат из раскрывающегося списка и нажав кнопку "Ввод!".


*Определитесь, кто Вы:
робот инопланетянин человек

Внимание! Время в таблицах - всемирное. Для получения местного времени необходимо прибавить поправку, которая равна 2 ч.

Смотрите также архив погоды в соседних городах и на ближайших метеорологических станциях:

Погода в Рас-Седре (Египет) (105 км)
Погода в Эйлате (Израиль) (125 км)
Погода в Неот-Смадаре (Израиль) (125 км)
Погода в Абу Редис (Египет) (125 км)
Погода в Эль-Арише (Египет) (129 км)
Погода в Акаба (Иордания) (129 км)
Погода в Исмаилии (Египет) (161 км)
Погода в Беэр-Шева (Израиль) (180 км)
Погода в Эль-Торе (Египет) (188 км)
Погода в Маане (Иордания) (199 км)

Пояснения к столбцам:

Ветер - указаны скорость ветра в м/с - средняя за 10 мин, порывы в срок и между сроками (в фигурных скобках) и направление, откуда дует ветер: С - северный, СВ - северо-восточный, В - восточный, ЮВ - юго-восточный, Ю - южный, ЮЗ - юго-западный, З - западный, СЗ - северо-западный.
Видимость - горизонтальная дальность видимости в метрах или километрах. При видимости от 1 до 10 км при отсутствии осадков обычно наблюдается дымка, при ухудшении видимости до 1 км и менее - туман. В сухую погоду видимость может ухудшаться дымом, пылью или мглою.
Явления - указаны атмосферные явления, наблюдавшиеся в срок или в последний час перед сроком; фигурными скобками обозначены явления, наблюдавшиеся между сроками (за 1-3 часа до срока); квадратными скобками обозначены град или гололедные отложения с указанием их диаметра в мм.
Облачность - указаны через наклонную черту общая и нижняя облачность в баллах и высота нижней границы облаков в метрах; квадратными скобками обозначены формы облаков: Ci - перистые, Cs - перисто-слоистые, Cc - перисто-кучевые, Ac - высококучевые, As - высокослоистые, Sc - слоисто-кучевые, Ns - слоисто-дождевые, Cu - кучевые, Cb - кучево-дождевые. Подробнее классификацию облаков см. в Атласе облаков (PDF).
T - Температура воздуха - температура, измеренная на высоте 2 м над землей.
Td - Температура точки росы - температура, при понижении до которой содержащийся в воздухе водяной пар достигнет насыщения.
f - Относительная влажность воздуха - влажноcть воздуха, измеренная на высоте 2 м над землей.
Te - Эффективная температура - температура, которую ощущает одетый по сезону человек в тени. Характеристика душности погоды. При расчете учитывается влияние влажности воздуха и скорости ветра на теплоощущения человека.
Tes - Эффективная температура на солнце - температура, которую ощущает человек, с поправкой на солнечный нагрев. Характеристика знойности погоды. Зависит от высоты солнца над горизонтом, облачности и скорости ветра. Ночью, в пасмурную погоду, а также при ветре 12 м/с и более поправка равна нулю.
P - Атмосферное давление - приведенное к уровню моря атмосферное давление.
Po - Атмосферное давление - измеренное на уровне метеостанции атмосферное давление.
Tmin - Минимальная температура - минимум температуры воздуха на высоте 2 м над землей.
Tmax - Максимальная температура - максимум температуры воздуха на высоте 2 м над землей.
R - Количество осадков - Количество выпавших осадков за период времени, мм. При наведении курсора мыши на число - период времени, за который выпало указанное количество осадков.
R24 - Количество осадков - Количество выпавших осадков за 24 часа, мм.
S - Снежный покров - Высота снежного покрова, см. При наведении курсора мыши на число - состояние снежного покрова и степень покрытия местности в баллах.